Redmond, OR

12:56 AM PST on February 13, 2016 (GMT -0800)
Roberts Field Airport

Weather History for KRDM - August, 2013

Change the Weather History Date:

Thursday, August 29, 2013

  Actual Average Record
Temperature  
Mean Temperature 70 °F 62 °F  
Max Temperature 84 °F 82 °F 100 °F (1998)
Min Temperature 56 °F 43 °F 31 °F (1969)
Degree Days  
Heating Degree Days 0 4  
Month to date heating degree days 16 72  
Since 1 June heating degree days 221 358  
Since 1 July heating degree days 36 141  
Cooling Degree Days 5 1  
Month to date cooling degree days 94 78  
Year to date cooling degree days 309 204  
Since 1 June cooling degree days 300 199  
Growing Degree Days 20 (Base 50)    
Moisture  
Dew Point 50 °F    
Average Humidity 55    
Maximum Humidity 86    
Minimum Humidity 23    
Precipitation  
Precipitation 0.00 in 0.02 in 0.45 in (1982)
Month to date precipitation 1.16 0.47  
Year to date precipitation 3.08 5.70  
Sea Level Pressure  
Sea Level Pressure 29.95 in    
Wind  
Wind Speed 7 mph (SW)    
Max Wind Speed 23 mph    
Max Gust Speed 31 mph    
Visibility 10 miles    
Events      
T = Trace of Precipitation, MM = Missing Value Source: NWS Daily Summary

Daily Weather History Graph

Daily Weather History Graph

Search for Another Location

Airport or City:

Trip Planner

Search our weather history database for the weather conditions in past years. The results will help you decide how hot, cold, wet, or windy it might be!

Date:

Astronomy

Aug. 29, 2013 Rise Set
Actual Time 6:24 AM PDT 7:45 PM PDT
Civil Twilight 5:54 AM PDT 8:15 PM PDT
Nautical Twilight 5:18 AM PDT 8:51 PM PDT
Astronomical Twilight 4:39 AM PDT 9:29 PM PDT
Moon 12:13 AM PDT (8/29) 3:25 PM PDT (8/29)
Length of Visible Light 14h 21m
Length of Day
13h 20m
Last Quarter, 37% of the Moon is Illuminated
Aug 29
Last Quarter
Sep 5
New
Sep 12
First Quarter
Sep 19
Full
Sep 26
Last Quarter

Hourly Weather History & Observations

Time (PDT) Temp. Dew Point Humidity Pressure Visibility Wind Dir Wind Speed Gust Speed Precip Events Conditions
12:56 AM 64.9 °F 54.0 °F 68% 29.88 in 10.0 mi WNW 8.1 mph - N/A   Clear
1:56 AM 64.0 °F 54.0 °F 70% 29.87 in 10.0 mi WNW 5.8 mph - N/A   Clear
2:56 AM 61.0 °F 54.0 °F 78% 29.87 in 10.0 mi Calm Calm - N/A   Clear
3:56 AM 60.1 °F 53.1 °F 78% 29.87 in 10.0 mi SW 4.6 mph - N/A   Clear
4:56 AM 57.9 °F 53.1 °F 84% 29.87 in 10.0 mi SSE 3.5 mph - N/A   Clear
5:56 AM 57.0 °F 52.0 °F 83% 29.88 in 10.0 mi SSE 4.6 mph - N/A   Clear
6:56 AM 60.1 °F 52.0 °F 75% 29.91 in 10.0 mi South 5.8 mph - N/A   Clear
7:56 AM 63.0 °F 52.0 °F 67% 29.92 in 10.0 mi SSE 6.9 mph - N/A   Clear
8:56 AM 64.9 °F 51.1 °F 61% 29.94 in 10.0 mi SSE 5.8 mph - N/A   Clear
9:56 AM 68.0 °F 46.9 °F 47% 29.94 in 10.0 mi South 6.9 mph - N/A   Mostly Cloudy
10:56 AM 73.9 °F 45.0 °F 35% 29.94 in 10.0 mi South 6.9 mph - N/A   Clear
11:56 AM 79.0 °F 44.1 °F 29% 29.93 in 10.0 mi SSW 17.3 mph 23.0 mph N/A   Clear
12:56 PM 79.0 °F 44.1 °F 29% 29.92 in 10.0 mi SSW 13.8 mph 23.0 mph N/A   Partly Cloudy
1:56 PM 80.1 °F 44.1 °F 28% 29.94 in 10.0 mi West 8.1 mph 20.7 mph N/A   Mostly Cloudy
2:56 PM 80.1 °F 45.0 °F 29% 29.94 in 10.0 mi West 9.2 mph - N/A   Scattered Clouds
3:56 PM 82.0 °F 46.9 °F 29% 29.93 in 10.0 mi Variable 6.9 mph - N/A   Scattered Clouds
4:56 PM 84.0 °F 42.1 °F 23% 29.94 in 10.0 mi West 9.2 mph 23.0 mph N/A   Partly Cloudy
5:20 PM 75.2 °F 50.0 °F 41% 30.03 in 10.0 mi WNW 18.4 mph 26.5 mph N/A   Scattered Clouds
5:56 PM 75.0 °F 53.1 °F 46% 29.97 in 10.0 mi NW 15.0 mph 21.9 mph N/A   Clear
6:56 PM 73.0 °F 52.0 °F 48% 29.98 in 10.0 mi NW 16.1 mph 19.6 mph N/A   Clear
7:56 PM 69.1 °F 52.0 °F 54% 30.01 in 10.0 mi NW 12.7 mph - N/A   Scattered Clouds
8:56 PM 64.9 °F 52.0 °F 63% 30.05 in 10.0 mi ENE 4.6 mph - N/A   Clear
9:56 PM 63.0 °F 52.0 °F 67% 30.05 in 10.0 mi NNE 4.6 mph - N/A   Clear
10:56 PM 57.0 °F 51.1 °F 81% 30.06 in 10.0 mi East 3.5 mph - N/A   Clear
11:56 PM 60.1 °F 52.0 °F 75% 30.05 in 10.0 mi ENE 4.6 mph - N/A   Partly Cloudy